Theta_e
276 276 275 276 277 277 277 276 274 271 272 274 274 277 278 280 282 282 281 286 289 290 292 292 292 293 293 294 295 296 296 297 298 299 301 302 302 303
276 275 275 275 276 276 277 276 276 274 271 275 276 277 279 280 282 282 282 286 288 289 290 291 291 292 292 293 293 294 295 295 296 298 299 300 301 302
275 275 275 275 275 275 276 276 275 275 273 275 277 278 278 278 279 280 281 280 281 287 289 290 290 291 292 292 292 293 294 295 295 296 297 298 300 301
274 274 275 277 276 276 275 275 275 276 274 273 276 277 277 279 279 279 280 281 281 285 288 289 290 290 291 292 292 292 293 293 294 294 294 296 297 299
275 275 275 276 277 278 278 277 277 278 278 276 276 279 279 280 280 280 280 280 281 285 288 289 290 290 290 291 291 291 291 292 292 292 293 293 295 296
277 279 279 279 279 279 279 278 279 278 279 278 279 279 280 282 282 281 280 281 281 282 285 286 287 288 290 290 290 290 290 291 291 291 291 291 292 294
279 280 280 281 284 284 282 281 281 281 280 279 278 279 279 278 278 280 280 280 280 282 281 282 282 281 282 285 286 288 288 289 290 290 291 291 292 292
279 279 280 282 282 285 285 285 284 281 280 279 279 278 278 280 280 278 278 277 276 281 280 280 282 280 281 281 285 287 288 288 289 290 290 291 291 292
278 279 280 281 282 280 282 284 285 286 286 282 280 280 278 279 279 278 278 278 278 280 280 278 281 280 282 282 287 288 288 289 289 290 290 290 291 291
279 279 279 279 280 282 281 281 281 282 282 283 281 281 281 281 281 281 281 281 282 283 282 277 281 280 282 282 286 287 288 288 289 289 290 290 290 290
280 280 280 280 283 285 281 280 280 280 283 284 284 285 286 286 285 281 277 275 275 276 280 279 279 280 281 281 282 286 288 288 289 289 289 289 290 290
281 280 283 282 284 285 281 279 277 277 278 280 281 279 281 280 283 279 277 275 275 275 279 277 278 279 277 280 281 282 281 285 287 288 288 289 290 288
278 279 280 283 284 284 284 279 277 281 281 278 277 277 277 277 278 279 279 278 276 276 280 280 279 279 279 278 272 275 279 280 282 284 287 287 289 289
277 279 279 283 283 283 281 282 283 282 277 276 276 276 276 276 278 279 279 280 280 280 281 282 280 279 277 269 274 271 274 278 281 280 281 285 288 288
280 281 282 282 281 279 279 281 281 276 275 275 275 275 276 277 278 278 279 279 280 282 283 284 282 281 279 276 271 270 274 273 277 279 279 279 280 281
280 278 279 278 278 277 276 276 276 275 276 276 276 276 276 276 276 277 276 277 278 278 279 282 282 281 279 278 277 276 274 272 274 279 279 279 280 281
280 274 271 271 271 271 272 273 275 275 275 276 275 275 275 275 275 276 277 278 276 276 275 276 282 283 282 280 276 275 275 273 277 278 278 277 280 283
274 269 269 269 269 270 271 272 273 274 275 276 276 274 274 274 274 275 277 278 275 274 272 274 276 276 278 277 281 277 276 275 278 278 276 278 279 282
267 268 269 269 269 270 271 271 271 273 275 276 275 274 275 275 275 274 275 277 275 272 273 272 272 275 270 271 272 283 278 278 275 275 278 280 279 281
269 268 268 269 270 270 271 271 272 273 275 276 276 275 274 275 275 273 274 274 272 266 266 266 269 273 274 272 270 276 282 278 277 277 279 281 283 286
269 269 269 270 270 271 272 272 273 274 276 276 275 274 274 274 273 273 272 278 278 268 271 267 270 280 278 273 271 272 275 282 282 280 281 280 280 285
269 269 269 270 270 271 272 272 273 274 276 275 275 275 275 275 274 273 272 270 266 270 268 270 274 268 277 276 275 275 273 278 283 286 286 285 283 284
268 269 269 270 271 271 272 272 274 275 276 276 275 275 275 275 275 273 272 271 269 268 268 272 276 275 275 273 277 275 276 279 282 282 284 289 288 289
Wind_Speed
4 5 4 3 4 4 5 5 6 8 10 3 4 4 5 7 14 14 14 23 29 29 29 30 30 29 29 29 29 28 28 29 30 30 31 32 29 32
4 5 4 4 5 4 5 6 6 9 10 4 8 10 10 10 15 16 16 27 28 30 30 30 30 30 29 29 29 28 29 28 29 30 31 31 32 31
5 5 6 5 5 5 5 6 7 8 13 12 10 10 12 12 13 14 15 14 13 29 29 29 29 29 30 29 29 29 29 29 28 29 29 31 31 32
6 5 7 7 7 6 5 8 9 11 11 19 14 11 13 12 14 16 14 13 14 23 29 30 29 30 30 30 29 30 30 29 29 29 28 30 31 32
7 7 8 8 9 8 9 10 10 10 11 13 17 11 11 11 13 14 14 15 12 25 30 30 31 31 30 30 30 30 28 29 29 28 29 30 30 31
7 8 9 10 11 12 12 13 12 11 12 12 13 12 12 10 9 11 11 9 9 11 19 23 27 29 31 32 32 31 30 29 29 28 29 28 30 29
7 9 10 14 22 20 11 11 12 10 9 12 13 14 12 13 14 10 9 12 12 9 11 11 11 11 13 23 24 29 29 29 28 28 28 29 29 27
9 10 11 18 16 22 24 26 22 15 15 13 14 16 19 13 7 14 15 14 15 9 13 12 10 11 12 11 24 28 28 27 28 28 29 29 30 27
10 11 11 10 17 13 20 26 24 26 27 20 20 15 18 17 17 17 17 15 15 12 13 14 11 13 12 13 27 28 28 28 28 29 29 29 28 28
11 12 12 13 13 16 16 14 13 13 14 11 15 17 17 18 17 15 16 15 12 8 10 14 10 13 11 10 24 28 28 28 27 28 28 28 29 28
11 11 11 12 18 26 17 15 14 13 14 25 30 32 32 31 28 16 13 13 13 12 10 12 12 12 11 11 10 25 27 27 26 27 26 27 28 30
9 9 17 18 25 26 18 14 15 14 16 15 9 14 19 16 25 15 10 12 12 10 11 7 10 9 7 7 10 9 8 18 19 20 20 27 29 12
8 9 9 24 27 28 28 12 14 21 18 12 12 11 12 12 10 10 11 10 11 12 14 12 8 7 9 9 3 3 5 7 6 9 14 16 21 19
8 9 11 26 28 28 22 24 28 25 11 12 12 11 11 11 11 10 12 12 12 16 16 16 8 7 7 3 7 3 4 5 5 8 6 12 16 20
9 18 27 26 26 18 23 26 24 11 12 11 10 11 11 10 14 13 12 14 14 14 13 14 9 9 6 6 4 4 3 4 4 7 6 5 8 7
16 10 18 20 20 19 15 13 10 10 12 12 10 11 11 10 10 9 9 10 8 10 6 10 9 9 8 8 8 9 4 4 3 6 6 7 8 8
18 8 9 9 10 10 10 12 11 11 11 11 9 11 11 11 10 8 8 9 8 8 6 3 5 7 5 5 5 6 8 6 8 9 5 9 9 9
9 8 9 9 11 11 11 12 12 15 12 12 9 10 10 10 10 9 8 9 7 6 4 3 2 2 2 5 15 10 8 8 9 8 6 9 12 11
4 8 10 10 11 11 11 12 13 13 16 11 10 10 10 9 12 7 8 8 6 4 4 2 2 4 4 8 4 15 10 8 5 7 7 9 12 14
6 9 10 11 11 12 12 13 13 13 13 10 9 10 10 9 8 7 6 5 4 3 4 3 3 5 6 6 5 9 12 8 7 10 10 10 11 25
10 11 11 11 12 12 12 12 14 14 14 11 10 9 9 8 8 6 5 11 9 1 5 5 5 11 4 1 4 7 6 15 16 11 9 8 10 5
10 11 12 12 12 13 13 13 13 15 11 10 11 9 9 8 8 7 4 3 3 3 4 5 7 2 3 5 9 9 6 8 9 17 21 17 5 3
11 11 12 13 12 13 14 13 14 13 11 11 11 9 8 7 7 4 4 4 3 4 3 4 4 2 3 2 8 6 9 9 2 2 2 9 13 11
Wind_Direction
264 255 246 248 246 241 249 255 268 298 300 266 274 250 257 267 275 282 284 284 291 292 291 290 290 290 289 287 286 286 288 284 283 281 279 278 277 282
266 269 262 253 257 254 258 259 255 266 282 290 278 274 266 268 272 279 276 277 282 285 286 288 288 288 288 285 283 283 281 281 281 279 277 275 277 274
265 263 269 261 266 261 258 261 264 264 273 283 279 272 263 258 262 267 269 270 271 275 280 283 284 285 284 284 281 281 279 275 277 279 281 278 275 274
276 273 272 288 284 280 271 268 260 264 271 281 282 280 272 266 262 262 263 262 264 269 275 280 283 285 281 279 277 279 278 276 277 279 282 279 274 274
266 268 281 276 278 278 265 264 267 268 269 275 282 280 276 275 271 262 260 259 259 263 271 276 280 281 279 280 282 283 279 276 273 274 276 278 275 273
259 265 270 268 274 283 277 273 270 265 264 268 279 286 286 287 266 283 275 257 265 258 261 262 266 266 271 276 278 278 278 278 278 277 274 275 275 271
272 280 279 277 283 289 293 291 282 280 284 282 284 288 293 294 286 290 285 291 286 276 258 262 261 262 264 270 269 269 271 270 271 271 270 270 273 272
294 291 279 285 288 291 297 302 294 291 287 289 289 287 289 289 307 292 289 289 286 265 271 270 256 254 255 250 256 262 267 268 269 271 268 270 274 270
281 278 283 286 296 289 284 284 285 283 286 292 292 294 296 293 290 282 278 274 272 270 264 269 266 267 257 254 261 265 267 268 269 271 273 272 274 276
275 275 275 282 283 285 287 286 285 277 276 277 280 283 277 278 275 275 274 274 282 281 266 273 267 265 266 257 258 262 264 269 269 271 273 272 272 273
282 284 284 284 293 302 304 298 293 294 288 287 287 288 294 297 298 299 291 290 288 283 275 268 268 270 265 260 254 258 265 268 271 272 274 275 275 272
293 283 300 309 312 310 316 313 310 304 299 288 297 293 291 287 290 283 280 275 276 279 261 253 262 264 271 247 247 253 257 268 272 272 282 289 275 260
309 311 304 312 313 323 317 317 300 302 311 305 301 294 290 285 277 268 263 262 266 263 267 273 264 246 239 265 272 248 223 255 253 261 273 293 280 276
310 307 303 316 324 319 319 308 309 317 307 298 297 292 291 287 287 286 281 273 265 267 274 268 262 227 238 240 249 285 246 245 239 257 256 272 274 286
319 317 326 324 321 317 308 311 316 304 296 288 292 299 294 290 291 290 282 273 269 268 272 276 246 238 229 240 240 228 228 257 232 256 263 254 268 274
325 322 320 319 312 306 309 304 301 298 293 298 291 296 293 294 286 277 276 288 286 284 267 249 242 237 238 234 235 256 224 250 250 255 262 272 273 258
332 327 316 316 312 311 309 307 301 301 295 301 293 299 294 290 284 285 282 281 275 280 294 290 267 253 245 232 241 242 253 245 251 263 260 275 274 268
333 310 307 311 306 307 306 304 303 308 302 302 298 295 291 288 288 289 286 283 268 268 274 277 273 273 254 253 225 252 250 252 260 260 248 267 282 278
313 311 305 305 303 303 301 302 303 301 302 295 293 291 291 292 300 291 289 297 273 258 262 254 252 252 255 267 267 233 246 256 259 267 253 264 270 279
314 305 300 300 302 301 301 303 300 301 299 295 296 298 295 293 292 280 286 298 281 284 294 290 256 249 255 263 267 277 242 244 248 264 270 271 266 270
313 308 302 301 302 300 299 299 297 302 296 306 298 292 293 290 287 277 280 305 311 252 293 278 249 272 263 331 296 280 270 241 244 249 266 270 276 263
303 302 303 302 302 300 301 301 298 302 300 301 297 290 286 281 281 278 273 266 276 264 258 267 286 286 255 247 271 280 280 287 273 263 255 245 273 321
306 302 301 302 301 298 299 298 302 295 301 299 293 287 280 277 282 270 274 261 266 285 270 295 305 274 268 233 275 276 287 290 288 294 284 211 203 143